Location: *
(51.8167°N, 12.5000°E)
Time: 09:15:05
(UTC+00:00)

Cosmos 405 Rocket - Pass Details

Date: 16 September 2019
Orbit: 491 x 554 km, 81.3° (Epoch: 15 October)

Event Time Altitude Azimuth Distance (km) Brightness Sun altitude
Exits shadow 19:54:16 42° 227° (SW) 715 3.4 -22.4°
Maximum altitude 19:55:16 60° 285° (WNW) 569 3.0 -22.6°
Drops below altitude 10° 19:58:57 10° 6° (N) 1,705 5.7 -23.0°
Sets 20:01:07 0° 11° (N) 2,598 6.6 -23.3°
